www.pogodaiklimat.ru

Погода и климат >> Архив погоды >> Россия >> Хабаровский край >> Вяземский


ПОГОДА в Вяземском

  • Прогноз погоды в Вяземском
  • Монитор погоды в Вяземском

АРХИВ ПОГОДЫ в Вяземском

Время (UTC), дата Ветер
(напр.,м/с)
 
Видим.   Явления Облачность Т
(С)
Тd
(С)
f
(%)
Тe
(С)
Тes
(С)
Комфортность P
(гПа)
Po
(гПа)
Тmin
(С)
Tmax
(С)
R
(мм)
R24
(мм)
S
(см)
06 13.06 Ю 1 20 км 10 баллов +19.2 +15.9 81 +22 +22 комфорт 1003.6 993.3
09 13.06 СВ 1 20 км в посл. час ливневой дождь 10/10 600 м
[Cb cap]
+17.6 +16.5 93 +19 +19 1002.3 992.0 +20.6 0.1
12 13.06 СВ 2 20 км {ливн. осадки} 10/10 600 м
[Cb cap]
+15.2 +14.5 96 +15 +15 1001.4 991.0
15 13.06 СВ 2 10 км слаб. ливневой дождь 10/10 600 м
[Cb cap]
+13.6 +13.1 97 +13 +13 1001.2 990.7
18 13.06 СВ 2 4000 м ливневой дождь 10/10 600 м
[Cb cap]
+12.5 +12.0 97 +11 +11 1001.2 990.7
21 13.06 СВ 3 10 км слаб. ливневой дождь 10/10 600 м
[Cb cap]
+11.6 +11.1 97 +10 +10 1000.4 989.8 +11.6 10
00 14.06 С 3 20 км в посл. час ливневой дождь 10/10 600 м
[Cb cap]
+11.2 +10.3 94 +9 +9 1003.4 992.8 +11.2
03 14.06 СВ 4 20 км 10/10 600 м
[Cb cap]
+12.6 +10.3 86 +11 +11 1006.6 996.0
06 14.06 СВ 4 20 км 10/10 600 м
[Cb cap]
+12.7 +9.0 78 +11 +11 1007.9 997.3
09 14.06 СВ 2 20 км 10/10 600 м
[Cb cap]
+11.6 +8.1 79 +11 +11 1009.4 998.7 +13.5 0.7
12 14.06 СВ 2 20 км 10/10 600 м
[Cb cap]
+9.9 +8.2 89 +8 +8 1010.7 1000.0
15 14.06 СВ 3 20 км 10/10 600 м
[Cb cap]
+9.4 +8.2 92 +7 +7 1012.1 1001.3
18 14.06 СВ 3 20 км 10/10 600 м
[Cb cap]
+9.2 +7.1 87 +7 +7 1012.1 1001.3
21 14.06 СВ 4 20 км 9/9 600 м
[Cb cap]
+9.1 +6.1 81 +6 +6 1011.1 1000.3 +9.1
00 15.06 СВ 4 20 км 8/8 600 м
[Cb cap]
+11.2 +6.9 75 +9 +11 1012.0 1001.3
03 15.06 СВ 4
{12}
20 км 4/4 600 м
[Cu hum]
+16.3 +8.3 59 +16 +23 1011.8 1001.3
06 15.06 СВ 6-11
{12}
20 км 3/3 600 м
[Cu hum]
+16.8 +7.4 54 +16 +20 1011.8 1001.3
09 15.06 СВ 6-12
{14}
20 км 4/0
[Ci fib]
+15.6 +5.8 52 +14 +15 1011.9 1001.3 +17.2
12 15.06 СВ 2
{12}
20 км 5/5 600 м
[Sc]
+11.8 +5.7 66 +11 +11 1012.4 1001.7
15 15.06 СВ 2 20 км 3/0
[Cc]
+9.3 +4.9 74 +8 +8 1013.5 1002.7
18 15.06 В 1 20 км 3/0
[Ci fib]
+4.9 +4.0 94 +3 +3 1012.3 1001.3
21 15.06 СВ 2 20 км 8/0
[Ci fib]
+7.5 +5.3 86 +5 +7 1011.9 1001.0 +3.9
00 16.06 СВ 4 20 км 8/0
[Ac trans Ci fib]
+14.0 +6.8 62 +13 +15 1011.9 1001.3
03 16.06 СВ 5
{11}
20 км 9/3 600 м
[Cu med, cong Ac trans Ci fib]
+18.0 +4.9 42 +18 +19 1010.5 1000.0
06 16.06 СВ 4
{12}
20 км 9/0
[Ci sp]
+19.4 +5.4 40 +20 +21 1007.7 997.3
09 16.06 С 4 20 км 8/0
[Ci fib]
+18.9 +2.7 34 +19 +19 1007.7 997.3 +19.7
12 16.06 штиль 0 20 км 6/0
[Ac trans Ci fib]
+10.8 +4.7 66 +10 +10 1008.0 997.3
15 16.06 Ю 1 20 км 6/0
[Ac trans Ci fib]
+6.0 +4.6 91 +5 +5 1008.2 997.3
18 16.06 ЮЗ 1 20 км 3/0
[Ci fib]
+4.5 +3.6 94 +3 +3 1009.7 998.7
21 16.06 штиль 0 20 км 3/0
[Ci fib]
+10.5 +6.7 77 +10 +12 1008.4 997.7 +4.1
00 17.06 ЮВ 1 20 км 8/0
[Ci sp]
+17.7 +7.7 52 +19 +23 1009.1 998.7
03 17.06 С 2 20 км 6/1 600 м
[Cu med, cong Ac cast Cs]
+21.4 +7.6 41 +22 +30 комфорт 1007.6 997.3
06 17.06 СЗ 3 20 км 9/3 600 м
[Cu med, cong Ac trans Ci sp]
+21.0 +7.9 43 +23 +24 комфорт 1007.6 997.3
09 17.06 СЗ 2 20 км 5/3 600 м
[Cu med, cong Ac cast Ci]
+21.4 +6.9 39 +22 +23 комфорт 1007.6 997.3 +22.1
12 17.06 ЮЗ 1 20 км 4/3 600 м
[Cb cap Ci fib]
+14.6 +9.0 69 +15 +15 1009.3 998.7
15 17.06 В 1 20 км 6/0
[Ac trans Ci sp]
+9.9 +8.8 93 +9 +9 1009.4 998.7
18 17.06 ЮВ 1 20 км 8/0
[Ci sp]
+7.4 +6.8 96 +6 +6 1009.5 998.7
21 17.06 штиль 0 20 км 3/0
[Ac trans Ci fib]
+9.9 +9.0 94 +9 +11 1008.3 997.6 +6.9
00 18.06 З 2 20 км 2 балла +17.5 +10.4 63 +18 +27 1007.7 997.3
03 18.06 З 2 20 км 4 балла +20.5 +9.4 49 +23 +34 комфорт 1006.3 996.0
06 18.06 СЗ 3 20 км 6 баллов +22.1 +8.9 43 +23 +27 комфорт 1004.9 994.7
09 18.06 З 2 20 км 4/3 600 м
[Cu med, cong Ci fib]
+21.3 +10.1 49 +23 +24 комфорт 1005.0 994.7 +22.5
12 18.06 Ю 1 20 км 2 балла +15.2 +11.2 77 +16 +16 1005.2 994.7
15 18.06 Ю 2 20 км ясно +12.8 +10.2 84 +12 +12 1005.3 994.7
18 18.06 Ю 1 20 км 1 балл +9.6 +8.7 94 +9 +9 1004.0 993.3
21 18.06 В 1 20 км 3/0
[Ci fib]
+12.5 +10.3 86 +12 +15 1002.8 992.3 +9.1
00 19.06 ЮЗ 2 20 км 2 балла +20.4 +11.0 55 +23 +32 комфорт 1002.3 992.0
03 19.06 З 4 20 км 9 баллов +22.7 +11.7 50 +25 +26 комфорт 1002.2 992.0
06 19.06 Ю 1 20 км 9 баллов +22.7 +12.0 51 +25 +27 комфорт 1002.2 992.0
09 19.06 штиль 0 20 км 9/6 600 м
[Cb cap Ac trans]
+22.7 +12.9 54 +26 +26 жарко 1000.9 990.7 +23.8
12 19.06 штиль 0 20 км 9 баллов +18.3 +15.7 85 +19 +19 1002.3 992.0
15 19.06 Ю 1 20 км 9 баллов +15.8 +14.3 91 +16 +16 1002.4 992.0
18 19.06 В 1 20 км 9 баллов +14.0 +13.0 94 +14 +14 1002.5 992.0
21 19.06 С 1 20 км в посл. час ливневой дождь 10/10 600 м
[Cb cap]
+14.0 +13.5 97 +14 +14 1003.0 992.5 +13.9 4
00 20.06 СВ 2 10 км слаб. ливневой дождь 10/10 600 м
[Cb cap]
+14.7 +14.1 96 +14 +14 1003.7 993.2
03 20.06 СВ 2 10 км слаб. ливневой дождь 10 баллов +16.8 +15.3 91 +17 +17 1005.1 994.7

 

Местоположение метеостанции Вяземский (Хабаровский край, Россия): широта 47.52 долгота 134.70 высота над уровнем моря 89 м.

В архиве по умолчанию представлена погода в Вяземском за последнюю неделю. Архивные данные за месяц целиком и за предыдущие месяцы, начиная с января 2011 года, Вы можете получить, выбрав интересующий диапазон дат из раскрывающегося списка и нажав кнопку "Ввод!".


*Определитесь, кто Вы:
робот инопланетянин человек

Внимание! Время в таблицах - всемирное. Для получения местного времени необходимо прибавить поправку, которая равна 10 ч.

Смотрите также архив погоды в соседних городах и на ближайших метеорологических станциях:

Погода в Хоре (Хабаровский край, Россия) (43 км)
Погода в Лермонтовке (Хабаровский край, Россия) (51 км)
Погода в Георгиевке (Хабаровский край, Россия) (61 км)
Погода в Бичевой (Хабаровский край, Россия) (73 км)
Погода в Бычихе (Хабаровский край, Россия) (87 км)
Погода в Бикине (Хабаровский край, Россия) (89 км)
Погода в Оборе (Хабаровский край, Россия) (93 км)
Погода в Гвасюгах (Хабаровский край, Россия) (106 км)
Погода в Хабаровске Аэр. Большой (Хабаровский край, Россия) (108 км)
Погода в Хабаровске АМС (Хабаровский край, Россия) (112 км)

Пояснения к столбцам:

Ветер - указаны скорость ветра в м/с - средняя за 10 мин, порывы в срок и между сроками (в фигурных скобках) и направление, откуда дует ветер: С - северный, СВ - северо-восточный, В - восточный, ЮВ - юго-восточный, Ю - южный, ЮЗ - юго-западный, З - западный, СЗ - северо-западный.
Видимость - горизонтальная дальность видимости в метрах или километрах. При видимости от 1 до 10 км при отсутствии осадков обычно наблюдается дымка, при ухудшении видимости до 1 км и менее - туман. В сухую погоду видимость может ухудшаться дымом, пылью или мглою.
Явления - указаны атмосферные явления, наблюдавшиеся в срок или в последний час перед сроком; фигурными скобками обозначены явления, наблюдавшиеся между сроками (за 1-3 часа до срока); квадратными скобками обозначены град или гололедные отложения с указанием их диаметра в мм.
Облачность - указаны через наклонную черту общая и нижняя облачность в баллах и высота нижней границы облаков в метрах; квадратными скобками обозначены формы облаков: Ci - перистые, Cs - перисто-слоистые, Cc - перисто-кучевые, Ac - высококучевые, As - высокослоистые, Sc - слоисто-кучевые, Ns - слоисто-дождевые, Cu - кучевые, Cb - кучево-дождевые. Подробнее классификацию облаков см. в Атласе облаков (PDF).
T - Температура воздуха - температура, измеренная на высоте 2 м над землей.
Td - Температура точки росы - температура, при понижении до которой содержащийся в воздухе водяной пар достигнет насыщения.
f - Относительная влажность воздуха - влажноcть воздуха, измеренная на высоте 2 м над землей.
Te - Эффективная температура - температура, которую ощущает одетый по сезону человек в тени. Характеристика душности погоды. При расчете учитывается влияние влажности воздуха и скорости ветра на теплоощущения человека.
Tes - Эффективная температура на солнце - температура, которую ощущает человек, с поправкой на солнечный нагрев. Характеристика знойности погоды. Зависит от высоты солнца над горизонтом, облачности и скорости ветра. Ночью, в пасмурную погоду, а также при ветре 12 м/с и более поправка равна нулю.
P - Атмосферное давление - приведенное к уровню моря атмосферное давление.
Po - Атмосферное давление - измеренное на уровне метеостанции атмосферное давление.
Tmin - Минимальная температура - минимум температуры воздуха на высоте 2 м над землей.
Tmax - Максимальная температура - максимум температуры воздуха на высоте 2 м над землей.
R - Количество осадков - Количество выпавших осадков за период времени, мм. При наведении курсора мыши на число - период времени, за который выпало указанное количество осадков.
R24 - Количество осадков - Количество выпавших осадков за 24 часа, мм.
S - Снежный покров - Высота снежного покрова, см. При наведении курсора мыши на число - состояние снежного покрова и степень покрытия местности в баллах.